• In Uzbekistan
  • List of Countries
  • For 7 days
  • Water Temperature
  • Satellite Maps
  • Weather Map
  • Weather Widgets
  • user-avatar
    Login

    Hourly Weather Bangor

    Today, 20 January, Saturday

    Time Temperature Precipitation Wind Pressure Humidity
    00:00 0°C° 0 mm 4 mps 738 mmHg 88%
    01:00 +1°C° 0.2 mm 3 mps 737 mmHg 89%
    02:00 +1°C° 0.2 mm 3 mps 736 mmHg 91%
    03:00 +3°C° 0.2 mm 2 mps 735 mmHg 92%
    04:00 +3°C° 0.2 mm 2 mps 735 mmHg 93%
    05:00 +3°C° 0.2 mm 2 mps 734 mmHg 94%
    06:00 +3°C° 0.2 mm 2 mps 733 mmHg 95%
    07:00 +3°C° 0.2 mm 2 mps 733 mmHg 95%
    08:00 +3°C° 0.2 mm 2 mps 733 mmHg 95%
    09:00 +4°C° 0.2 mm 1 mps 733 mmHg 96%
    10:00 +4°C° 0.4 mm 2 mps 733 mmHg 95%
    11:00 +4°C° 0.4 mm 2 mps 732 mmHg 95%
    12:00 +5°C° 0.4 mm 2 mps 732 mmHg 94%
    13:00 +5°C° 0.4 mm 4 mps 732 mmHg 93%
    14:00 +5°C° 0.4 mm 5 mps 732 mmHg 92%
    15:00 +5°C° 0.4 mm 7 mps 732 mmHg 91%
    16:00 +5°C° 0 mm 7 mps 733 mmHg 91%
    17:00 +4°C° 0 mm 7 mps 734 mmHg 91%
    18:00 +4°C° 0 mm 7 mps 735 mmHg 90%
    19:00 +3°C° 0 mm 6 mps 736 mmHg 91%
    20:00 +2°C° 0 mm 5 mps 737 mmHg 92%
    21:00 +2°C° 0 mm 3 mps 739 mmHg 93%
    22:00 +3°C° 0 mm 2 mps 739 mmHg 93%
    23:00 +3°C° 0 mm 2 mps 740 mmHg 93%

    Tomorrow, 21 January, Sunday

    Time Temperature Precipitation Wind Pressure Humidity
    00:00 +4°C° 0 mm 1 mps 740 mmHg 92%
    01:00 +4°C° 0.2 mm 1 mps 740 mmHg 93%
    02:00 +3°C° 0.2 mm 2 mps 740 mmHg 93%
    03:00 +3°C° 0.2 mm 2 mps 740 mmHg 93%
    04:00 +2°C° 0.7 mm 3 mps 740 mmHg 94%
    05:00 +3°C° 0.7 mm 4 mps 739 mmHg 95%
    06:00 +3°C° 0.7 mm 4 mps 739 mmHg 95%
    07:00 +3°C° 0.6 mm 5 mps 739 mmHg 95%
    08:00 +4°C° 0.6 mm 6 mps 739 mmHg 96%
    09:00 +5°C° 0.6 mm 7 mps 738 mmHg 96%
    10:00 +6°C° 0.5 mm 7 mps 738 mmHg 95%
    11:00 +7°C° 0.5 mm 8 mps 738 mmHg 94%
    12:00 +9°C° 0.5 mm 8 mps 738 mmHg 93%
    13:00 +10°C° 0.5 mm 9 mps 738 mmHg 92%
    14:00 +10°C° 0.5 mm 9 mps 737 mmHg 92%
    15:00 +10°C° 0.5 mm 9 mps 737 mmHg 92%
    16:00 +10°C° 0.5 mm 9 mps 737 mmHg 92%
    17:00 +10°C° 0.5 mm 9 mps 737 mmHg 92%
    18:00 +10°C° 0.5 mm 9 mps 737 mmHg 92%
    19:00 +10°C° 0.2 mm 9 mps 737 mmHg 92%
    20:00 +10°C° 0.2 mm 8 mps 738 mmHg 93%
    21:00 +10°C° 0.2 mm 8 mps 738 mmHg 93%
    22:00 +10°C° 0.1 mm 7 mps 738 mmHg 93%
    23:00 +10°C° 0.1 mm 7 mps 738 mmHg 94%

    Day after tomorrow, 22 January, Monday

    Time Temperature Precipitation Wind Pressure Humidity
    00:00 +9°C° 0.1 mm 7 mps 738 mmHg 94%
    01:00 +9°C° 0.1 mm 6 mps 738 mmHg 94%
    02:00 +9°C° 0.1 mm 5 mps 738 mmHg 94%
    03:00 +10°C° 0.1 mm 4 mps 738 mmHg 94%
    04:00 +8°C° 0.7 mm 4 mps 737 mmHg 95%
    05:00 +9°C° 0.7 mm 3 mps 737 mmHg 95%
    06:00 +9°C° 0.7 mm 3 mps 737 mmHg 96%
    07:00 +7°C° 0.5 mm 4 mps 738 mmHg 94%
    08:00 +7°C° 0.5 mm 4 mps 738 mmHg 92%
    09:00 +7°C° 0.5 mm 5 mps 739 mmHg 90%
    10:00 +7°C° 0 mm 5 mps 740 mmHg 86%
    11:00 +7°C° 0 mm 5 mps 741 mmHg 82%
    12:00 +7°C° 0 mm 6 mps 743 mmHg 78%
    13:00 +7°C° 0 mm 5 mps 743 mmHg 78%
    14:00 +7°C° 0 mm 5 mps 744 mmHg 78%
    15:00 +7°C° 0 mm 4 mps 744 mmHg 78%
    16:00 +6°C° 0 mm 4 mps 744 mmHg 82%
    17:00 +5°C° 0 mm 4 mps 745 mmHg 86%
    18:00 +4°C° 0 mm 4 mps 745 mmHg 90%
    19:00 +4°C° 0 mm 4 mps 746 mmHg 90%
    20:00 +4°C° 0 mm 4 mps 746 mmHg 90%
    21:00 +4°C° 0 mm 4 mps 746 mmHg 90%
    22:00 +5°C° 0 mm 5 mps 746 mmHg 91%
    23:00 +5°C° 0 mm 5 mps 746 mmHg 91%

    23 January, Tuesday

    Time Temperature Precipitation Wind Pressure Humidity
    00:00 +4°C° 0 mm 6 mps 746 mmHg 92%
    01:00 +5°C° 0 mm 6 mps 745 mmHg 92%
    02:00 +5°C° 0 mm 6 mps 745 mmHg 92%
    03:00 +5°C° 0 mm 6 mps 745 mmHg 92%
    04:00 +6°C° 0.1 mm 7 mps 745 mmHg 92%
    05:00 +6°C° 0.1 mm 7 mps 744 mmHg 92%
    06:00 +8°C° 0.1 mm 7 mps 744 mmHg 93%
    07:00 +9°C° 0.1 mm 7 mps 744 mmHg 93%
    08:00 +9°C° 0.1 mm 6 mps 744 mmHg 93%
    09:00 +10°C° 0.1 mm 6 mps 744 mmHg 94%
    10:00 +10°C° 0.1 mm 6 mps 744 mmHg 92%
    11:00 +10°C° 0.1 mm 7 mps 744 mmHg 91%
    12:00 +10°C° 0.1 mm 7 mps 744 mmHg 89%
    13:00 +10°C° 0 mm 7 mps 744 mmHg 88%
    14:00 +10°C° 0 mm 7 mps 744 mmHg 87%
    15:00 +10°C° 0 mm 7 mps 744 mmHg 85%
    16:00 +10°C° 0 mm 8 mps 744 mmHg 87%
    17:00 +10°C° 0 mm 8 mps 743 mmHg 89%
    18:00 +9°C° 0 mm 8 mps 743 mmHg 90%
    19:00 +10°C° 0.1 mm 8 mps 743 mmHg 90%
    20:00 +10°C° 0.1 mm 9 mps 743 mmHg 90%
    21:00 +10°C° 0.1 mm 9 mps 743 mmHg 89%
    22:00 +10°C° 0.1 mm 9 mps 742 mmHg 89%
    23:00 +10°C° 0.1 mm 9 mps 742 mmHg 88%

    24 January, Wednesday

    Time Temperature Precipitation Wind Pressure Humidity
    00:00 +9°C° 0.1 mm 10 mps 742 mmHg 88%
    01:00 +9°C° 0.1 mm 10 mps 741 mmHg 88%
    02:00 +9°C° 0.1 mm 10 mps 741 mmHg 88%
    03:00 +9°C° 0.1 mm 10 mps 741 mmHg 88%
    04:00 +9°C° 0.6 mm 10 mps 740 mmHg 89%
    05:00 +9°C° 0.6 mm 10 mps 740 mmHg 89%
    06:00 +9°C° 0.6 mm 10 mps 739 mmHg 90%
    07:00 +9°C° 1.3 mm 10 mps 739 mmHg 90%
    08:00 +9°C° 1.3 mm 10 mps 739 mmHg 90%
    09:00 +9°C° 1.3 mm 10 mps 739 mmHg 90%
    10:00 +8°C° 2 mm 9 mps 739 mmHg 90%
    11:00 +9°C° 2 mm 8 mps 739 mmHg 90%
    12:00 +9°C° 2 mm 7 mps 739 mmHg 90%
    13:00 +8°C° 1.1 mm 7 mps 739 mmHg 89%
    14:00 +7°C° 1.1 mm 6 mps 739 mmHg 88%
    15:00 +6°C° 1.1 mm 5 mps 739 mmHg 87%
    16:00 +6°C° 0.5 mm 5 mps 739 mmHg 87%
    17:00 +5°C° 0.5 mm 5 mps 739 mmHg 87%
    18:00 +5°C° 0.5 mm 5 mps 739 mmHg 87%
    19:00 +5°C° 0.1 mm 5 mps 740 mmHg 86%
    20:00 +3°C° 0.1 mm 6 mps 740 mmHg 85%
    21:00 +3°C° 0.1 mm 6 mps 741 mmHg 83%
    22:00 +3°C° 0 mm 6 mps 741 mmHg 84%
    23:00 +3°C° 0 mm 6 mps 741 mmHg 84%

    25 January, Thursday

    Time Temperature Precipitation Wind Pressure Humidity
    00:00 +2°C° 0 mm 6 mps 741 mmHg 84%
    01:00 +2°C° 0.1 mm 6 mps 741 mmHg 84%
    02:00 +2°C° 0.1 mm 6 mps 741 mmHg 84%
    03:00 +2°C° 0.1 mm 6 mps 741 mmHg 85%
    04:00 +2°C° 0.1 mm 6 mps 741 mmHg 85%
    05:00 +2°C° 0.1 mm 6 mps 741 mmHg 84%
    06:00 +2°C° 0.1 mm 6 mps 741 mmHg 84%
    07:00 +2°C° 0.1 mm 7 mps 742 mmHg 82%
    08:00 +1°C° 0.1 mm 8 mps 742 mmHg 80%
    09:00 +2°C° 0.1 mm 8 mps 742 mmHg 78%
    10:00 +2°C° 0.1 mm 9 mps 742 mmHg 76%
    11:00 +3°C° 0.1 mm 10 mps 742 mmHg 74%
    12:00 +5°C° 0.1 mm 10 mps 742 mmHg 72%
    13:00 +5°C° 0.2 mm 10 mps 742 mmHg 72%
    14:00 +5°C° 0.2 mm 9 mps 742 mmHg 72%
    15:00 +5°C° 0.2 mm 9 mps 742 mmHg 72%
    16:00 +4°C° 0.1 mm 8 mps 743 mmHg 75%
    17:00 +3°C° 0.1 mm 7 mps 743 mmHg 77%
    18:00 +2°C° 0.1 mm 7 mps 744 mmHg 80%
    19:00 +2°C° 0 mm 6 mps 745 mmHg 80%
    20:00 +1°C° 0 mm 6 mps 745 mmHg 80%
    21:00 +1°C° 0 mm 6 mps 746 mmHg 81%
    22:00 +1°C° 0 mm 6 mps 747 mmHg 80%
    23:00 +1°C° 0 mm 6 mps 747 mmHg 80%
    Show more